SL-16 R/B DEB, 49050

Orbit data source: Space-Track

SL-16 R/B DEB, 49050 is space debris in LEO originally from a launch on Fri, 25 Dec 1992 UTC launched from the Tyuratam Missile And Space Complex (TTMTR). Debris objects in space refer to the collection of defunct objects orbiting the Earth. Examples of debris include non-operational satellites, rocket bodies, and fragments generated from explosions, collisions, or faulty payload assembly.

Loading next visibility...
Identifier
49050, 1992-093LX
Orbit
LEO
Country
Flag of CISCIS
Related business
Manufacturer
Unknown
Mission
Spacecraft
Bus & Motor
Unknown
Mass
Unknown
Launch date (UTC)
1992-12-25 (33 years ago)
Launch vehicle
Unknown
Launch site
Tyuratam Missile And Space Complex (TTMTR)
Object type
Payload
Rocket body
Debris
Shape & HBR
Unknown shape, 0.1 m
Radar Cross Section
RCS unknown

Expand to show TLE details & history
Last TLE update: 16 hours ago

TLE from 16 hours ago
0 SL-16 R/B DEB
1 49050U 92093LX  26037.08891572  .00026480  00000-0  12261-1 0  9992
2 49050  71.0164  69.5748 0013121 302.3547  57.6308 14.20636522 14566
Epoch: 2026-02-06T02:08Z
TLE epoch observation values (Epoch: 2026-02-06T02:08:02.318Z)
Latitude
-0°
Longitude
-98.66666°
Altitude
820.558 km
Speed
7.446 km/s
True Right ascension
04h 38m 17s
True Declination
0° 00' 00"
Sunlit
Object was in daylight at epoch
Visualization orbit readout
Latitude
Unknown
Longitude
Unknown
Altitude
Unknown
Speed
Unknown
Apparent Right ascension
Unknown
Apparent Declination
Unknown
Sunlit
N/A
Visualization observer readout
Local Sidereal Time
20:37:36
Azimuth
Unknown
Elevation
Unknown
Doppler factor
Unknown
Orbital elements
Apogee altitude
830.565 km
Perigee altitude
811.673 km
Semi-major axis
7,199.256 km
Eccentricity
0.00131
Inclination
71.0164°
RAAN
69.5748°
Arg. of periapsis
302.3547°
True anomaly
57.7579°
Mean anomaly
57.6308°
Eccentric anomaly
57.69434°
Mean motion
3.55314 °/min
Orbital period
101.32 mins
BSTAR
0.012261
Loading maneuver chart data...
Computing Atmospheric mass density...

Documentation

Showing up to 5 results
|